Volver al catálogo

CARTOSAT 2A

ActivoCienciaSSO
NORAD 32783·PAYLOAD·🇮🇳 India

Lanzado Apr 28, 2008 desde Satish Dhawan Space Centre

Loading…

Próximos Pases (próximas 24 horas)

TLE

ActualizadoSource: Space-Track

Época: Sep 14, 2026, 14:29 UTC

1 32783U 08021A   26257.60366243  .00000118  00000-0  22520-4 0  9991
2 32783  97.7549 303.2251 0011718 173.6962 186.4399 14.79326402992024

Sigue CARTOSAT 2A en tiempo real con AllMySat

Download on the App Store